Flag for China Weather past 2 weeks in Kashgar, China

Now
66 °F

Duststorm.


Feels Like: 66 °F
Forecast: 56 / 65 °F
Wind: 8 mph from Southeast

Location: Kashi Airport


UV Index: 5 (Moderate)

Visibility: 2 mi


Pressure: 30.04 "Hg

Humidity: 13%

Dew point: 14 °F

Location of KashgarLocation

Historic Weather in Kashgar

°F

Kashgar temperature yesterday

Maximum temperature yesterday: 66 °F (at 6:00 PM)
Minimum temperature yesterday: 52 °F (at 7:00 AM)
Average temperature yesterday: 60 °F

Past Weeks' High & Low Weather Summary

 TemperatureHumidityPressure
High75 °F (Apr 16, 5:00 PM)50% (Apr 9, 9:00 AM)30.15 "Hg (Apr 9, 9:00 AM)
Low45 °F (Apr 15, 8:00 AM)3% (Apr 14, 5:00 PM)29.77 "Hg (Apr 16, 6:00 PM)
Average61 °F15%29.95 "Hg
* Reported Apr 3 6:00 PM — Apr 18 6:00 PM, Kashgar, Weather by CustomWeather, © 2014

Note: Actual official high and low records may vary slightly from our data, if they occured in-between our weather recording intervals... More about our weather records

Advertising

Historic Weather Conditions — Data for Previous 24 hours

 ConditionsComfort  
Time TempWeatherWind HumidityBarometerVisibility
6:00 PM
Apr 18
68 °FDuststorm.13 mph13%30.04 "Hg2 mi
5:00 PM68 °FDuststorm.10 mph12%30.07 "Hg2 mi
4:00 PM68 °FDuststorm.8 mph12%30.09 "Hg2 mi
3:00 PM64 °FDuststorm.6 mph14%30.09 "Hg2 mi
2:00 PM63 °FDuststorm.6 mph17%30.12 "Hg2 mi
1:00 PM63 °FDuststorm.6 mph16%30.15 "Hg2 mi
12:00 PM59 °FDuststorm.6 mph18%30.15 "Hg2 mi
11:00 AM59 °FDuststorm.3 mph18%30.15 "Hg2 mi
10:00 AM57 °FDuststorm.3 mph27%30.12 "Hg2 mi
9:00 AM54 °FDuststorm.6 mph35%30.12 "Hg2 mi
8:00 AM55 °FDuststorm.3 mph31%30.09 "Hg3 mi
7:00 AM55 °FDuststorm.1 mph28%30.07 "Hg3 mi
6:00 AM57 °FDuststorm.8 mph27%30.07 "Hg3 mi
5:00 AM57 °FDuststorm.10 mph27%30.07 "Hg3 mi
4:00 AM57 °FClear.10 mph27%30.07 "Hg10 mi
3:00 AM59 °FClear.10 mph25%30.07 "Hg10 mi
2:00 AM59 °FClear.13 mph21%30.04 "Hg10 mi
1:00 AM61 °FClear.8 mph19%30.04 "Hg10 mi
12:00 AM61 °FClear.15 mph19%30.01 "Hg10 mi
11:00 PM
Apr 17
63 °FDuststorm.6 mph16%29.98 "Hg1 mi
10:00 PM63 °FDuststorm.6 mph17%29.95 "Hg1 mi
9:00 PM64 °FDuststorm.3 mph14%29.95 "Hg1 mi
8:00 PM64 °FDuststorm.3 mph13%29.92 "Hg2 mi
7:00 PM64 °FDuststorm.6 mph13%29.92 "Hg1 mi
Weather by CustomWeather, © 2014

See weather overview